"Pseudo-MPEC" for N00fu55

Created 2019 Dec 11 17:07:09 UT using Find_Orb

Click here for an explanation of pseudo-MPECs

 
 Astrometry: 
     N00fu55  S2019 11 29M1y9SKyZT_TtWDAwZk,6T5t6UZn1DAvw4OI3/WrR)bMvfW/AF)u\C51
     N00fu55  s2019 11 298/*$S%Q9PTL91D1=Mtj.JcN'roMUD/GSmKaAstrometryr810l]#C51
     N00fu55  S2019 11 29W'5u//e=Y(k;T;h/9R1mE\TbF)LlgPIHeDWtdN-ltGik0(CAuBX)C51
     N00fu55  s2019 11 29:t)DGuewE3bCE6aMwTGU6E??BandsRYm5#:1hk0US-Co(A#)u2@@C51
     N00fu55  S2019 11 29Q9redacted;blaem_Y)Mn*?X:LenpZvk7@I:!mmT\3vF+8sSwl17C51
     N00fu55  s2019 11 29?v+i1\4bTLbn'UJNc`ae\-Ju[#clickLMhcl?H5**I,l#2.K9=uhC51
     N00fu55  S2019 11 30[\)FrkKmL(sSq\F6_5@i_69xhRctwyXwrI?O+9(O(l4fX#lns+laC51
     N00fu55  s2019 11 308b%29XDkPmmJvx=%TlaF[%29\Ya0d-qJPic/3.9[c1TjcMRc.1v!C51
     N00fu55  S2019 11 30HUXsIOPsZ?7i,E(g!ly0Lisyu\a-2bUA$here3;(k!vdlep8H8m:C51
     N00fu55  s2019 11 307#@ZP@Vg'=yDru_j*U5,RyRqojsa8gxo.3FNC3/`fSXaVqQ:L@X?C51
     N00fu55  S2019 11 30SPiC#P5k)+yQM_6E^DWNQnTLo3kH=4E@e[1nf0dq7#iNHMrYMLaYC51
     N00fu55  s2019 11 30@;+i(P7Ee]fPQx^/S?x[AK-S3a2.Vqw_G5^2r$jV:NrV7%u5ap:nC51
     N00fu55  S2019 11 30pm\1%jhvg'xe0NjMAFrR]w'L8xgaHZCZ:36)hWHy+8$8!$dSb54TC51
     N00fu55  s2019 11 303!o[6loP%q@ZT/k#bPohforTbiYLwuB2cQy?F4U9*_rU%,0hwgPNC51
     N00fu55  S2019 12 01\\xbo%9jGK.x$'y868vu0RTqCn)sv?lYrTNwmsxr[wvbvhxheMRqC51
     N00fu55  s2019 12 01'I3Jpx:ijMax8EO7=04mrd5JRTw*KX.8]Lb[@,%Hm#J`HSw?ce25C51
     N00fu55  S2019 12 01)!_[V6?'n't+-\fNBkv6HPJSMiplU+uWD03ZOn(1h4%TlGB7vgM)C51
     N00fu55  s2019 12 01nS`r^[)\ku0y,SgJ2uq3umKxDl%M;A'!m?7v\8r1#K=08BB4mUc`C51
     N00fu55  S2019 12 01Z;^'@2Bmw/24,hKxa\Ufe%v-mC=0]QLBXF.b!RLgf2070Kt@7N+$C51
     N00fu55  s2019 12 01mcGdt*;N4Nc55WGGg818f+On7FL^cs7X=7^k8MtUbTDsUE:n0R4\C51
     N00fu55  S2019 12 01)-\UkE)G];dNS0@^uC8sn1OcPky3x[CC[jrA.FNAUpRojn=.%Y7CC51
     N00fu55  s2019 12 01c(vQZXNW9TGeO01#(,2_#dTm3qUl*miGOfR0Dg74icygA'tSfwrtC51
     N00fu55  S2019 12 01D+kywOFgQv-),Q0MBxpxoe]Q9jqjlhG7hyAh@rdM!JXeRHRZrqqIC51
     N00fu55  s2019 12 011atU$@D%2fXSTx%s%C]Fu7dxixpaosLVm'4hKn7LSFKX?*8h88%VC51
     N00fu55  S2019 12 016IT`0IY\ZcHninZC!Zn3yR@.OxI)^Y-=oAw2ilU``6)pQOJ)Uf$NC51
     N00fu55  s2019 12 01N$#LM`0`G'/h$A2pwr1gUM7,V;52'9:/q=[DWE^YLmG+i3!@+fa`C51
     N00fu55  S2019 12 01mxFJ:66uOP+GG@EXf^78Q9CtLy:2?!L3Ts7H/'w81\9X#_jiw\[NC51
     N00fu55  s2019 12 01uY#G2=3Qs`M3/OB6L4G/NYfgJ/d,Dl[#o\i3pA`093CI?_hS-Q'fC51
     N00fu55  S2019 12 02=njLXPK%1Ntnad9GNR4qUP6;?ipKBh?3nRc?WOH+C@maY:5e)`AYC51
     N00fu55  s2019 12 02v6R?8#jZkdG9peY':'27GYxZtgy#Mt6I0iBHlg]7Q*P!Ic(cjnTkC51
     N00fu55  S2019 12 02NR%s%YFSoId8lf^YIud.eWiGu4;OYC\9EUr$KtK5fqVK*%Fng3EJC51
     N00fu55  s2019 12 024t^*IqM_0s;(wqTKvC8ny=xY=GFD4EnIs,SC#Z\hSwJ+nX0kH9U?C51
     N00fu55 KC2019 12 0474]85'M4OP.5]+l=gZqe+V3cfX?5qu.cck!RL(gexplanation!2T12
     N00fu55 KC2019 12 04u6o)3m=^2:FfX_oP4$mRIH*vQqQ=FB3L%tB^`ER`eX?J(o9`bk/0T12
     N00fu55 KC2019 12 05u+;G]Ym%Ft*Fn^TKj;jH4o*).jEy/t+%AB8iG^c+^12v?7f4(hHwH21
     N00fu55 KC2019 12 05s++cP*=:X#?TE1CGo`R-q)6VoK8]M50YttcXk#6nvD:-AaV'mcx2H21
     N00fu55 KC2019 12 05FiB;nZSAIcC7d!)AkwrjkY1R69Sk24.o(hH$kfX4#vi`48j$)Ij6H21
     N00fu55 KC2019 12 06.49615 11 05 50.21 +13 29 33.6    ~C6Cb 21.3 RoNEOCP291
     N00fu55 KC2019 12 06.50268 11 05 51.23 +13 29 22.5    ~C6Cb 21.5 RoNEOCP291
     N00fu55 KC2019 12 06.50915 11 05 52.21 +13 29 11.6    ~C6Cb 21.3 RoNEOCP291
     N00fu55 KC2019 12 07_)6mNmc0ER?IC+(1bXT#vB;@!Djk4)NJvC?6`eB%h?dJ*L)8OY[DH21
     N00fu55 KC2019 12 07\CD'WMU\$1b!QS;put8o^cyeF8nYM93c\Wjm_EO=08akZ1@TJimgH21
     N00fu55 |C2019 12 11CXg5LFb?ZKUk;I*:xGJjff5wV.!y!hBYUW`?%6D5[_^fS63X[SDp807
     N00fu55 |C2019 12 11SAbwceHwu7QygD+H]ih7ZI;UmechF%eLBQN?.VWbMD,2FCiZ6k)+807
     N00fu55 |C2019 12 11PJ=?pB^veiK^o3oLuvJ'.KKd:_T_C__M0WlZyQW@(WjokgLdlQ),807

Station data:
(291) LPL/Spacewatch II  (N31.961669 W111.599905)  US/Arizona.  Observers J.
   V. Scotti, R. S. McMillan. 1.8-m f/2.7 reflector + CCD.
(807) Cerro Tololo Observatory, La Serena  (S30.169136 W70.805900)  Chile.
(C51) WISE. Measurers A. Mainzer, E. Wright, J. Bauer, T. Grav, J. Dailey, J.
   Masiero, R. Cutri, R. McMillan, R. Walker.
(H21) Astronomical Research Observatory, Westfield  (N39.483057 W87.968270)
   US/Illinois. 0.76-m f/3.0 astrograph + CCD.
(T12) Mauna Kea-UH/Tholen NEO Follow-Up (2.24-m)  (N19.822991 W155.469434)
   US/Hawaii.  Observers D. Fohring, D. Hung, Y. Ramanjooloo, Z. Claytor, D.
   J. Tholen. 2.24-m University of Hawaii reflector.

Orbital elements:  N00fu55
   Perihelion 2019 Dec 24.819060 +/- 0.0493 TT = 19:39:26 (JD 2458842.319060)
Epoch 2019 Dec 11.0 TT = JDT 2458828.5   Earth MOID: 0.3948   Ju: 0.0376
M 357.64028630 +/- 0.15             (J2000 ecliptic)          AutoNEOCP
n   0.17075790 +/- 0.0111           Peri.  170.58135 +/- 0.050
a   3.21772432 +/- 0.14             Node   319.93020 +/- 0.23
e   0.5715474 +/- 0.0171            Incl.   12.41816 +/- 0.048
P   5.77                   H 19.6   G  0.15   U  9.7  
q 1.37864209 +/- 0.00534    Q 5.05680655 +/- 0.306
From 29 observations 2019 Nov. 29-Dec. 11; mean residual 0".58
Residuals in arcseconds: 
191129 C51  .27-  .37-    191201 C51  .96+  .03+    191205 H21  .20+  .30+    
191129 C51  .88-  .68-    191201 C51  1.4+  .04+    191206 291  .05-  .33+    
191129 C51  .03+  1.6+    191201 C51  .92-  .79+    191206 291  .13+  .10+    
191130 C51  .53-  .01-    191201 C51  .94+  .02-    191206 291  .13-  .03-    
191130 C51  .32+  .50+    191202 C51  .11+  .53-    191207 H21  .32+  .41+    
191130 C51  .22-  .70+    191202 C51  .19-  1.1+    191207 H21  .02-  .01-    
191130 C51  1.3+  .78+    191204 T12  .04+  .04-    191211 807  .36+  .11-    
191201 C51  .29-  1.6-    191204 T12  .06-  .01-    191211 807  .12-  .07-    
191201 C51  .46+  .57-    191205 H21  .00   .10+    191211 807  .30-  .01-    
191201 C51  .52+  .95+    191205 H21  .00   .25+    

Ephemerides (geocentric):
Date (UTC) HH   RA              Dec         delta   r     elong  mag " sig PA
---- -- -- --  -------------   -----------  ------ ------ -----  --- ---- ---
2019 12 11 17  11 19 12.754   +11 02 16.40  .92946 1.3863  92.8 21.9 .468 140
2019 12 11 18  11 19 19.028   +11 01 04.66  .92922 1.3862  92.8 21.9 .476 140
2019 12 11 19  11 19 25.300   +10 59 52.91  .92898 1.3862  92.8 21.9 .485 140
2019 12 11 20  11 19 31.569   +10 58 41.14  .92875 1.3861  92.8 21.9 .494 140
2019 12 11 21  11 19 37.836   +10 57 29.36  .92851 1.3861  92.8 21.9 .503 140
2019 12 11 22  11 19 44.101   +10 56 17.56  .92827 1.3860  92.8 21.9 .512 140
2019 12 11 23  11 19 50.363   +10 55 05.75  .92803 1.3860  92.8 21.9 .521 141
2019 12 12 00  11 19 56.623   +10 53 53.92  .92780 1.3859  92.8 21.9 .530 141
2019 12 12 01  11 20 02.881   +10 52 42.08  .92756 1.3859  92.9 21.9 .540 141
2019 12 12 02  11 20 09.137   +10 51 30.22  .92732 1.3858  92.9 21.9 .549 141
2019 12 12 03  11 20 15.390   +10 50 18.34  .92709 1.3858  92.9 21.9 .559 141
2019 12 12 04  11 20 21.641   +10 49 06.45  .92685 1.3857  92.9 21.9 .568 141
2019 12 12 05  11 20 27.889   +10 47 54.54  .92661 1.3857  92.9 21.9 .578 142
2019 12 12 06  11 20 34.135   +10 46 42.62  .92638 1.3856  92.9 21.9 .588 142
2019 12 12 07  11 20 40.379   +10 45 30.68  .92614 1.3856  92.9 21.9 .598 142
2019 12 12 08  11 20 46.621   +10 44 18.73  .92591 1.3856  92.9 21.9 .608 142
2019 12 12 09  11 20 52.860   +10 43 06.76  .92567 1.3855  92.9 21.9 .619 142
2019 12 12 10  11 20 59.097   +10 41 54.78  .92543 1.3855  92.9 21.8 .629 142
2019 12 12 11  11 21 05.331   +10 40 42.78  .92520 1.3854  93.0 21.8 .639 142
2019 12 12 12  11 21 11.564   +10 39 30.77  .92496 1.3854  93.0 21.8 .650 142
2019 12 12 13  11 21 17.793   +10 38 18.74  .92473 1.3853  93.0 21.8 .661 143
2019 12 12 14  11 21 24.021   +10 37 06.70  .92449 1.3853  93.0 21.8 .672 143
2019 12 12 15  11 21 30.246   +10 35 54.64  .92426 1.3852  93.0 21.8 .683 143
2019 12 12 16  11 21 36.469   +10 34 42.57  .92402 1.3852  93.0 21.8 .694 143
2019 12 12 17  11 21 42.689   +10 33 30.48  .92379 1.3851  93.0 21.8 .705 143
2019 12 12 18  11 21 48.908   +10 32 18.37  .92355 1.3851  93.0 21.8 .716 143
2019 12 12 19  11 21 55.123   +10 31 06.25  .92332 1.3851  93.0 21.8 .728 143
2019 12 12 20  11 22 01.337   +10 29 54.12  .92308 1.3850  93.1 21.8 .740 143
2019 12 12 21  11 22 07.548   +10 28 41.97  .92285 1.3850  93.1 21.8 .751 143
2019 12 12 22  11 22 13.757   +10 27 29.81  .92262 1.3849  93.1 21.8 .763 143
2019 12 12 23  11 22 19.963   +10 26 17.63  .92238 1.3849  93.1 21.8 .775 143
2019 12 13 00  11 22 26.167   +10 25 05.44  .92215 1.3848  93.1 21.8 .787 144
2019 12 13 01  11 22 32.369   +10 23 53.23  .92191 1.3848  93.1 21.8 .799 144
2019 12 13 02  11 22 38.569   +10 22 41.01  .92168 1.3848  93.1 21.8 .812 144
2019 12 13 03  11 22 44.766   +10 21 28.77  .92145 1.3847  93.1 21.8 .824 144
2019 12 13 04  11 22 50.960   +10 20 16.52  .92121 1.3847  93.1 21.8 .837 144
2019 12 13 05  11 22 57.153   +10 19 04.25  .92098 1.3846  93.2 21.8 .849 144
2019 12 13 06  11 23 03.343   +10 17 51.97  .92075 1.3846  93.2 21.8 .862 144
2019 12 13 07  11 23 09.530   +10 16 39.67  .92051 1.3845  93.2 21.8 .875 144
2019 12 13 08  11 23 15.716   +10 15 27.36  .92028 1.3845  93.2 21.8 .888 144
2019 12 13 09  11 23 21.899   +10 14 15.04  .92005 1.3845  93.2 21.8 .902 144
2019 12 13 10  11 23 28.079   +10 13 02.70  .91982 1.3844  93.2 21.8 .915 144
2019 12 13 11  11 23 34.257   +10 11 50.35  .91958 1.3844  93.2 21.8 .928 144
2019 12 13 12  11 23 40.433   +10 10 37.98  .91935 1.3843  93.2 21.8 .942 144
2019 12 13 13  11 23 46.607   +10 09 25.59  .91912 1.3843  93.2 21.8 .956 144
2019 12 13 14  11 23 52.778   +10 08 13.20  .91889 1.3842  93.3 21.8 .970 145
2019 12 13 15  11 23 58.947   +10 07 00.79  .91865 1.3842  93.3 21.8 .984 145
2019 12 13 16  11 24 05.113   +10 05 48.36  .91842 1.3842  93.3 21.8 1.00 145